[[{"header":{"parameterUnit":"m.s-1","parameterCategory":1,"la1":30.2991,"la2":30.254,"lo1":-89.0895,"lo2":-89.0444,"dy":0.0017,"dx":0.0017,"nx":28,"ny":28,"refTime":"2024-07-17T03:00:00:Z","depth":0,"parameterNumber":2,"parameterNumberName":"U-component_of_WINDS"},"data":[0,0,0,0,0,0,0,0,0,0,0,0,0,0,0,0,0,0,0,0,0,0,0,0,0,0,0,0,0,0,0,0,0,0,0,0,0,0,0,0,0,0,0,0,0,0,0,0,0,0,0,0,0,0,0,0,0,0,1.1465,1.1466,0,1.1537,1.1538,1.1539,1.1557,1.1556,1.1556,1.1555,1.1631,1.1633,1.1636,0,0,0,0,0,0,0,0,0,0,0,0,0,1.1344,1.1346,1.1465,1.1466,1.1467,1.1537,1.1538,1.1539,1.1557,1.1556,1.1556,1.1555,1.163,1.1633,1.1636,0,0,0,0,0,0,0,0,0,0,0,0,0,1.1404,1.1347,1.1465,1.1484,1.1487,1.1537,1.1538,1.1539,1.1557,1.1556,1.1556,1.1555,1.1629,1.1633,1.1636,1.1673,0,0,1.1648,1.1649,0,0,0,0,0,0,0,0,1.1401,1.1409,1.1481,1.1483,1.1486,1.1537,1.1523,1.1584,1.1557,1.153,1.1555,1.1555,1.16,1.1606,1.1622,1.1677,1.168,1.1648,1.165,1.1652,1.1653,0,0,0,0,0,0,0,1.1397,1.1406,1.1494,1.1482,1.1485,1.1489,1.1497,1.1535,1.1569,1.1533,1.1534,1.1542,1.1602,1.1618,1.1623,1.1681,1.1648,1.1651,1.1653,1.1655,1.1768,1.1769,0,0,0,0,0,0,1.1389,1.1402,1.1492,1.1496,1.1441,1.1492,1.1501,1.1522,1.1568,1.1575,1.1543,1.1543,1.1612,1.1619,1.1626,1.1671,1.1652,1.1655,1.1657,1.1768,1.1769,1.1769,0,0,0,0,0,0,1.1386,1.1397,1.1489,1.1449,1.1462,1.1495,1.1518,1.1523,1.154,1.1576,1.1582,1.1553,1.1612,1.1621,1.1661,1.1674,1.1657,1.166,1.1767,1.1768,1.1769,1.1763,0,0,0,0,0,0,1.1383,1.1396,1.141,1.145,1.1464,1.1522,1.1519,1.1525,1.1546,1.1546,1.1587,1.1593,1.1612,1.1655,1.1665,1.1679,1.1663,1.1766,1.1767,1.1769,1.1762,1.1763,1.1765,0,0,0,0,0,1.1378,1.1406,1.1411,1.1421,1.1482,1.1523,1.1531,1.1551,1.1547,1.1561,1.1584,1.1592,1.1671,1.1659,1.167,1.1686,1.1765,1.1767,1.1769,1.1761,1.1763,1.1765,0,0,0,0,0,0,1.1368,1.1412,1.1417,1.1459,1.1487,1.1526,1.1545,1.1553,1.1583,1.1583,1.1607,1.1616,1.1654,1.1674,1.166,1.1723,1.1718,1.1722,1.1709,1.1711,1.1712,1.1707,1.1666,0,0,0,0,0,1.1371,1.14,1.1436,1.1469,1.1483,1.1511,1.153,1.1543,1.1573,1.1586,1.1612,1.1641,1.1672,1.1693,1.1724,1.1764,1.1773,1.178,1.1782,1.1783,1.1786,1.1808,1.1811,1.1775,1.1775,1.1775,0,0,1.1377,1.1404,1.1421,1.1468,1.1491,1.1521,1.1521,1.1553,1.1575,1.1591,1.1629,1.1649,1.1684,1.1724,1.1743,1.1741,1.1798,1.1785,1.1786,1.1789,1.181,1.1813,1.1816,1.1777,1.1776,1.1776,0,0,1.1402,1.1426,1.1455,1.1478,1.1513,1.1531,1.1538,1.1575,1.1589,1.1628,1.164,1.1666,1.172,1.1744,1.1763,1.1795,1.1803,1.1804,1.1813,1.1833,1.1836,1.1839,1.1849,1.1853,1.1808,1.1808,1.1808,0,1.1405,1.1449,1.1469,1.15,1.152,1.1534,1.1564,1.1585,1.1628,1.1642,1.1639,1.1706,1.1731,1.1775,1.1783,1.1798,1.1807,1.18,1.1834,1.1837,1.184,1.185,1.1854,1.1807,1.1807,1.1807,1.1807,0,1.1451,1.1481,1.1501,1.1541,1.1563,1.1593,1.1618,1.1638,1.1648,1.1667,1.1706,1.1735,1.1771,1.1783,1.1795,1.1829,1.1827,1.1829,1.1825,1.1842,1.1853,1.1857,1.1807,1.1807,1.1807,1.1807,0,0,1.1473,1.1522,1.1529,1.1547,1.1585,1.161,1.164,1.1674,1.1691,1.172,1.1745,1.179,1.1791,1.1812,1.1826,1.1845,1.1867,1.1844,1.1845,1.1847,1.1906,1.1904,1.1908,1.1872,1.1873,1.1873,1.1902,0,1.1502,1.1556,1.1574,1.1619,1.1647,1.166,1.1686,1.1712,1.173,1.1756,1.1776,1.1807,1.1807,1.182,1.1838,1.186,1.1879,1.1858,1.1896,1.1897,1.1886,1.1913,1.1912,1.1938,1.1907,1.1907,1.1908,0,1.1545,1.1573,1.162,1.1653,1.1666,1.1689,1.1721,1.1746,1.1776,1.1787,1.181,1.1822,1.1854,1.1847,1.1891,1.1876,1.1893,1.1906,1.1907,1.1911,1.1903,1.1918,1.1947,1.1951,1.1914,1.1914,1.1913,0,1.1555,1.1605,1.1639,1.1654,1.1694,1.171,1.1727,1.1756,1.1775,1.1804,1.1816,1.1848,1.1866,1.189,1.191,1.1904,1.1952,1.1947,1.1962,1.1961,1.1971,1.1971,1.2003,1.1982,1.1982,1.1982,1.1982,0,1.1586,1.1614,1.1644,1.1665,1.1696,1.1717,1.1747,1.1766,1.1791,1.1816,1.1829,1.1852,1.1877,1.1903,1.1919,1.1952,1.196,1.197,1.1974,1.1969,1.1968,1.198,1.1979,1.1983,1.1983,1.1983,1.1983,0,1.1603,1.1624,1.1662,1.1696,1.1706,1.1727,1.1757,1.1777,1.1795,1.1826,1.1834,1.1862,1.1893,1.1915,1.1956,1.1967,1.2002,1.2006,1.1991,1.1993,1.2007,1.2005,1.2048,1.2054,1.203,1.203,1.203,0,1.1621,1.1643,1.1679,1.1696,1.1713,1.1741,1.176,1.178,1.18,1.1834,1.185,1.1882,1.1909,1.1958,1.1982,1.2012,1.2017,1.203,1.2022,1.2015,1.2016,1.2015,1.2016,1.2031,1.2031,1.2031,1.2032,0,1.1651,1.166,1.1687,1.1717,1.1739,1.1764,1.1789,1.1802,1.1827,1.1848,1.1879,1.19,1.194,1.1971,1.2004,1.2022,1.2031,1.2034,1.2039,1.2034,1.2024,1.2028,1.1994,1.2033,1.2033,1.2033,1.2033,1.2032,1.1669,1.1688,1.1716,1.1745,1.1766,1.1788,1.1809,1.1828,1.1855,1.1889,1.1899,1.1932,1.1959,1.2004,1.2022,1.2048,1.2047,1.2055,1.2057,1.2058,1.2057,1.202,1.2054,1.2054,1.2054,1.2054,1.2054,0,1.1699,1.1717,1.1743,1.1777,1.18,1.1805,1.1833,1.1851,1.1879,1.1904,1.1929,1.1965,1.1995,1.202,1.2051,1.2066,1.2071,1.2074,1.2073,1.2076,1.2056,1.2049,1.2069,1.2069,1.2069,1.2069,1.2069,1.2069,1.1717,1.175,1.1762,1.1804,1.1822,1.1853,1.1868,1.1889,1.1909,1.1947,1.1972,1.1988,1.2013,1.2045,1.2073,1.2079,1.209,1.2092,1.2099,1.208,1.2078,1.2076,1.2069,1.2094,1.2094,1.2117,1.2117,1.2118]},{"header":{"parameterUnit":"m.s-1","parameterCategory":1,"la1":30.2991,"la2":30.254,"lo1":-89.0895,"lo2":-89.0444,"dy":0.0017,"dx":0.0017,"nx":28,"ny":28,"refTime":"2024-07-17T03:00:00:Z","depth":0,"parameterNumber":3,"parameterNumberName":"V-component_of_WINDS"},"data":[0,0,0,0,0,0,0,0,0,0,0,0,0,0,0,0,0,0,0,0,0,0,0,0,0,0,0,0,0,0,0,0,0,0,0,0,0,0,0,0,0,0,0,0,0,0,0,0,0,0,0,0,0,0,0,0,0,0,3.4642,3.4641,0,3.4553,3.4552,3.4551,3.4473,3.4472,3.4471,3.447,3.4374,3.4372,3.4371,0,0,0,0,0,0,0,0,0,0,0,0,0,3.4739,3.4738,3.4642,3.4641,3.464,3.4553,3.4552,3.4551,3.4473,3.4472,3.4471,3.447,3.4375,3.4372,3.437,0,0,0,0,0,0,0,0,0,0,0,0,0,3.4678,3.4737,3.4642,3.4591,3.4585,3.4553,3.4552,3.455,3.4473,3.4472,3.447,3.4469,3.4375,3.4373,3.437,3.4381,0,0,3.4362,3.4361,0,0,0,0,0,0,0,0,3.4682,3.4675,3.4599,3.4594,3.4588,3.4523,3.4551,3.4493,3.4473,3.4515,3.447,3.4468,3.4424,3.4417,3.4404,3.4376,3.4372,3.4362,3.436,3.4359,3.4359,0,0,0,0,0,0,0,3.4686,3.4678,3.4607,3.4598,3.4591,3.457,3.456,3.454,3.4478,3.4512,3.4506,3.4497,3.4421,3.4406,3.4401,3.4371,3.4362,3.436,3.4358,3.4357,3.4345,3.4347,0,0,0,0,0,0,3.4699,3.4682,3.4609,3.4604,3.4633,3.457,3.4558,3.4545,3.4478,3.4467,3.4498,3.4493,3.4411,3.4404,3.4397,3.4404,3.4359,3.4357,3.4355,3.4344,3.4346,3.4347,0,0,0,0,0,0,3.4701,3.4693,3.4613,3.4641,3.463,3.4569,3.4555,3.4544,3.4529,3.4468,3.4456,3.4495,3.441,3.4401,3.4385,3.4399,3.4356,3.4353,3.4343,3.4345,3.4346,3.4419,0,0,0,0,0,0,3.4705,3.4695,3.47,3.4642,3.4629,3.4605,3.4556,3.4543,3.4526,3.4519,3.4462,3.4451,3.4408,3.439,3.4383,3.4395,3.4351,3.4341,3.4344,3.4346,3.4415,3.4423,3.443,0,0,0,0,0,3.4708,3.4723,3.47,3.4692,3.4634,3.4606,3.4598,3.455,3.4527,3.453,3.4491,3.4453,3.4399,3.4389,3.438,3.4392,3.434,3.4343,3.4346,3.4411,3.4421,3.443,0,0,0,0,0,0,3.4782,3.4714,3.4689,3.4685,3.4652,3.4593,3.4596,3.4562,3.4533,3.4528,3.4468,3.4456,3.4447,3.4418,3.4407,3.4398,3.4364,3.4366,3.4417,3.4426,3.4434,3.444,3.4349,0,0,0,0,0,3.4798,3.4783,3.4724,3.4726,3.4711,3.4657,3.4643,3.4609,3.4571,3.4556,3.4515,3.4479,3.4454,3.4438,3.4412,3.441,3.4396,3.4414,3.4422,3.4428,3.443,3.4425,3.4432,3.4356,3.4356,3.4356,0,0,3.483,3.4791,3.4785,3.474,3.471,3.4694,3.4645,3.463,3.4617,3.4553,3.4537,3.4505,3.4461,3.4452,3.4446,3.4428,3.4447,3.4432,3.4437,3.4435,3.4428,3.4436,3.4442,3.4358,3.4358,3.4358,0,0,3.4881,3.4851,3.4849,3.4821,3.4777,3.474,3.474,3.4686,3.4663,3.4646,3.4597,3.4579,3.4538,3.4507,3.4487,3.4525,3.4488,3.4518,3.4557,3.4553,3.4559,3.4564,3.4576,3.4582,3.452,3.452,3.452,0,3.4926,3.4902,3.4852,3.484,3.4821,3.4764,3.4761,3.4735,3.4684,3.4671,3.4652,3.4597,3.4563,3.4546,3.4556,3.4541,3.4537,3.4524,3.4562,3.4567,3.4571,3.4582,3.4587,3.4524,3.4523,3.4523,3.4523,0,3.4959,3.4943,3.4946,3.49,3.4881,3.4874,3.4821,3.4808,3.4775,3.474,3.4722,3.4679,3.4642,3.4636,3.4603,3.4613,3.4603,3.4574,3.4539,3.4583,3.4592,3.4596,3.4529,3.4528,3.4527,3.4526,0,0,3.5053,3.498,3.4982,3.496,3.4907,3.4892,3.4882,3.4847,3.4836,3.4803,3.4791,3.4756,3.4729,3.4705,3.4669,3.4666,3.4697,3.4636,3.4634,3.4648,3.4704,3.4726,3.4732,3.4673,3.4673,3.4674,3.4707,0,3.5094,3.5074,3.5028,3.5021,3.5004,3.4949,3.4939,3.4905,3.4872,3.4851,3.4813,3.479,3.4756,3.4741,3.4735,3.4695,3.4707,3.4692,3.4659,3.4659,3.4672,3.4737,3.476,3.4794,3.4711,3.4711,3.4712,0,3.514,3.5111,3.5103,3.505,3.5041,3.5034,3.4998,3.498,3.4938,3.4914,3.4888,3.4848,3.4831,3.48,3.4775,3.4765,3.4749,3.4727,3.4727,3.4721,3.4687,3.4732,3.4803,3.4808,3.4717,3.4717,3.4716,0,3.5208,3.5167,3.5156,3.5139,3.5078,3.5074,3.5048,3.5006,3.4987,3.4955,3.4943,3.4909,3.489,3.4863,3.4814,3.4796,3.4794,3.4759,3.4772,3.4773,3.4773,3.4774,3.4842,3.4765,3.4765,3.4765,3.4765,0,3.5258,3.5255,3.5186,3.518,3.5174,3.5121,3.5115,3.5084,3.5047,3.5031,3.4981,3.4968,3.4904,3.4883,3.4844,3.4828,3.482,3.4799,3.4788,3.4803,3.4805,3.4791,3.4787,3.4766,3.4766,3.4765,3.4765,0,3.5333,3.5288,3.5272,3.5216,3.5201,3.5199,3.515,3.514,3.5104,3.5085,3.5078,3.502,3.4992,3.4941,3.4897,3.4871,3.4863,3.4846,3.4878,3.4871,3.4887,3.4886,3.4947,3.4952,3.4873,3.4874,3.4875,0,3.5368,3.5364,3.5308,3.5295,3.5271,3.5251,3.5232,3.518,3.5162,3.5115,3.511,3.5079,3.505,3.5007,3.496,3.4927,3.4907,3.4931,3.4902,3.4916,3.4906,3.4907,3.4906,3.4938,3.4939,3.494,3.4941,0,3.5434,3.5411,3.5388,3.5356,3.5336,3.5308,3.5277,3.5269,3.5209,3.5191,3.5163,3.5141,3.5098,3.5066,3.5025,3.4996,3.4958,3.4951,3.4951,3.4966,3.4984,3.4974,3.4895,3.4949,3.4948,3.4948,3.4947,3.4947,3.5489,3.5483,3.5442,3.5417,3.5389,3.5361,3.5349,3.5312,3.5288,3.525,3.5219,3.5193,3.515,3.5092,3.5065,3.5042,3.5024,3.5026,3.5026,3.5027,3.5033,3.4989,3.5034,3.5034,3.5034,3.5033,3.5033,0,3.5551,3.5523,3.55,3.546,3.544,3.5408,3.5372,3.5356,3.5335,3.5299,3.5273,3.5239,3.5208,3.5159,3.5123,3.5114,3.5096,3.5106,3.5106,3.51,3.5051,3.5053,3.5122,3.5122,3.5122,3.5122,3.5122,3.5122,3.5581,3.5569,3.5542,3.5514,3.5485,3.546,3.5442,3.5416,3.5387,3.5353,3.5327,3.5296,3.5254,3.5215,3.5184,3.517,3.5159,3.5175,3.5156,3.5111,3.5103,3.5095,3.5097,3.5174,3.5174,3.5206,3.5206,3.5207]}]]